Staunton, VA

2:15 PM EDT on July 26, 2017 (GMT -0400)
Shenandoah Valley Regional

Weather History for KSHD - January, 2013

Change the Weather History Date:

Sunday, January 13, 2013

  Actual Average Record
Temperature  
Mean Temperature 58 °F -  
Max Temperature 70 °F 42 °F 71 °F (2005)
Min Temperature 45 °F 24 °F 15 °F (1997)
Degree Days  
Heating Degree Days 8    
Growing Degree Days 8 (Base 50)    
Moisture  
Dew Point 52 °F    
Average Humidity 82    
Maximum Humidity 97    
Minimum Humidity 56    
Precipitation  
Precipitation 0.00 in - - ()
Sea Level Pressure  
Sea Level Pressure 30.04 in    
Wind  
Wind Speed 2 mph (SSW)    
Max Wind Speed 9 mph    
Max Gust Speed -    
Visibility 7 miles    
Events Fog    
Averages and records for this station are not official NWS values.
T = Trace of Precipitation, MM = Missing Value Source: NWS Daily Summary

Daily Weather History Graph

Daily Weather History Graph

Search for Another Location

Airport or City:

Trip Planner

Search our weather history database for the weather conditions in past years. The results will help you decide how hot, cold, wet, or windy it might be!

Date:

Astronomy

Jan. 13, 2013 Rise Set
Actual Time 7:31 AM EST 5:17 PM EST
Civil Twilight 7:02 AM EST 5:46 PM EST
Nautical Twilight 6:30 AM EST 6:19 PM EST
Astronomical Twilight 5:58 AM EST 6:50 PM EST
Moon 8:31 AM EST (1/13) 7:51 PM EST (1/13)
Length of Visible Light 10h 43m
Length of Day
9h 46m
Waxing Crescent, 5% of the Moon is Illuminated
Jan 13
Waxing Crescent
Jan 18
First Quarter
Jan 26
Full
Feb 3
Last Quarter
Feb 10
New

Hourly Weather History & Observations

Time (EST) Temp. Windchill Dew Point Humidity Pressure Visibility Wind Dir Wind Speed Gust Speed Precip Events Conditions
12:15 AM 48.6 °F - 46.8 °F 93% 30.10 in 5.0 mi Calm Calm - N/A   Clear
12:35 AM 49.8 °F - 48.0 °F 94% 30.09 in 10.0 mi Calm Calm - N/A   Scattered Clouds
12:55 AM 50.0 °F - 48.0 °F 93% 30.09 in 7.0 mi Calm Calm - N/A   Mostly Cloudy
1:15 AM 49.3 °F - 47.3 °F 93% 30.08 in 7.0 mi Calm Calm - N/A   Scattered Clouds
1:35 AM 48.6 °F - 46.8 °F 93% 30.08 in 7.0 mi Calm Calm - N/A   Clear
1:55 AM 48.7 °F - 46.8 °F 93% 30.09 in 3.0 mi Calm Calm - N/A   Clear
2:15 AM 48.7 °F - 47.1 °F 94% 30.08 in 0.8 mi Calm Calm - N/A   Mist
2:35 AM 47.7 °F - 46.2 °F 95% 30.09 in 2.5 mi Calm Calm - N/A   Clear
2:55 AM 46.9 °F - 45.5 °F 95% 30.08 in 2.0 mi Calm Calm - N/A   Clear
3:15 AM 47.5 °F - 45.9 °F 94% 30.08 in 2.5 mi Calm Calm - N/A   Clear
3:35 AM 48.4 °F - 46.9 °F 95% 30.07 in 2.5 mi Calm Calm - N/A   Clear
3:55 AM 48.6 °F - 47.3 °F 95% 30.06 in 2.5 mi Calm Calm - N/A   Clear
4:15 AM 47.5 °F - 46.2 °F 95% 30.05 in 1.2 mi Calm Calm - N/A   Scattered Clouds
4:35 AM 47.7 °F - 46.2 °F 95% 30.05 in 1.0 mi Calm Calm - N/A   Overcast
4:55 AM 46.9 °F - 45.7 °F 95% 30.05 in 0.5 mi Calm Calm - N/A Fog Fog
5:15 AM 46.4 °F - 45.0 °F 95% 30.04 in 3.0 mi Calm Calm - N/A   Mostly Cloudy
5:35 AM 48.6 °F - 47.3 °F 95% 30.03 in 0.2 mi Calm Calm - N/A Fog Fog
5:55 AM 46.4 °F - 45.1 °F 95% 30.03 in 0.2 mi Calm Calm - N/A Fog Fog
6:15 AM 45.5 °F - 44.2 °F 95% 30.05 in 0.2 mi Calm Calm - N/A Fog Fog
6:35 AM 46.9 °F - 45.9 °F 96% 30.05 in 0.2 mi Calm Calm - N/A Fog Fog
7:15 AM 45.9 °F 44.6 °F 45.0 °F 97% 30.05 in 0.2 mi South 3.5 mph - N/A Fog Fog
7:35 AM 47.7 °F - 46.6 °F 96% 30.06 in 0.2 mi Calm Calm - N/A Fog Fog
7:55 AM 46.4 °F - 45.1 °F 95% 30.06 in 0.2 mi Calm Calm - N/A Fog Fog
8:15 AM 46.4 °F - 45.5 °F 97% 30.07 in 0.2 mi Calm Calm - N/A Fog Fog
8:35 AM 48.4 °F - 47.3 °F 96% 30.07 in 0.8 mi Calm Calm - N/A   Mostly Cloudy
8:55 AM 51.3 °F - 50.2 °F 96% 30.07 in 3.0 mi Calm Calm - N/A   Clear
9:15 AM 56.8 °F - 55.8 °F 96% 30.08 in 7.0 mi SW 4.6 mph - N/A   Clear
9:35 AM 57.2 °F - 56.3 °F 97% 30.10 in 7.0 mi Calm Calm - N/A   Clear
9:55 AM 57.2 °F - 56.1 °F 96% 30.10 in 5.0 mi SSE 5.8 mph - N/A   Clear
10:15 AM 58.8 °F - 57.6 °F 96% 30.09 in 10.0 mi South 5.8 mph - N/A   Clear
10:35 AM 61.5 °F - 58.3 °F 89% 30.09 in 10.0 mi Calm Calm - N/A   Clear
10:55 AM 63.9 °F - 57.2 °F 79% 30.08 in 10.0 mi South 5.8 mph - N/A   Clear
11:15 AM 64.4 °F - 56.7 °F 76% 30.08 in 10.0 mi South 5.8 mph - N/A   Clear
11:55 AM 67.1 °F - 56.7 °F 69% 30.05 in 10.0 mi SSW 5.8 mph - N/A   Clear
12:35 PM 68.2 °F - 55.8 °F 64% 30.03 in 10.0 mi SW 6.9 mph - N/A   Clear
12:55 PM 68.9 °F - 55.6 °F 62% 30.03 in 10.0 mi SSW 8.1 mph - N/A   Clear
1:15 PM 69.1 °F - 55.4 °F 62% 30.02 in 10.0 mi South 5.8 mph - N/A   Clear
1:35 PM 68.9 °F - 55.0 °F 61% 30.01 in 10.0 mi SSW 8.1 mph - N/A   Clear
1:55 PM 69.4 °F - 54.5 °F 59% 30.01 in 10.0 mi SSW 6.9 mph - N/A   Clear
2:15 PM 70.0 °F - 54.3 °F 57% 30.00 in 10.0 mi SSW 9.2 mph - N/A   Clear
2:35 PM 69.6 °F - 53.6 °F 57% 30.01 in 10.0 mi South 9.2 mph - N/A   Clear
2:55 PM 70.0 °F - 53.8 °F 56% 30.01 in 10.0 mi SSW 6.9 mph - N/A   Clear
3:35 PM 70.0 °F - 53.6 °F 56% 30.02 in 10.0 mi South 5.8 mph - N/A   Clear
3:55 PM 69.8 °F - 53.4 °F 56% 30.02 in 10.0 mi South 4.6 mph - N/A   Clear
4:15 PM 69.8 °F - 53.8 °F 57% 30.03 in 10.0 mi SW 4.6 mph - N/A   Clear
4:35 PM 68.5 °F - 54.1 °F 60% 30.03 in 10.0 mi South 5.8 mph - N/A   Clear
4:55 PM 67.5 °F - 54.7 °F 64% 30.03 in 10.0 mi South 5.8 mph - N/A   Clear
5:15 PM 66.2 °F - 54.9 °F 67% 30.03 in 10.0 mi South 5.8 mph - N/A   Clear
5:35 PM 65.3 °F - 54.7 °F 68% 30.03 in 10.0 mi South 4.6 mph - N/A   Scattered Clouds
5:55 PM 64.9 °F - 54.7 °F 69% 30.03 in 10.0 mi South 5.8 mph - N/A   Mostly Cloudy
6:15 PM 64.8 °F - 55.4 °F 72% 30.03 in 10.0 mi South 5.8 mph - N/A   Overcast
6:35 PM 64.6 °F - 55.8 °F 73% 30.02 in 10.0 mi South 6.9 mph - N/A   Scattered Clouds
6:55 PM 64.2 °F - 55.9 °F 74% 30.03 in 10.0 mi South 8.1 mph - N/A   Scattered Clouds
7:15 PM 63.7 °F - 55.9 °F 76% 30.03 in 10.0 mi South 5.8 mph - N/A   Clear
7:35 PM 63.7 °F - 55.9 °F 76% 30.01 in 10.0 mi South 5.8 mph - N/A   Clear
7:55 PM 61.0 °F - 54.5 °F 79% 30.02 in 10.0 mi WSW 4.6 mph - N/A   Scattered Clouds
8:15 PM 59.0 °F - 54.7 °F 86% 30.02 in 10.0 mi SW 5.8 mph - N/A   Mostly Cloudy
8:35 PM 61.5 °F - 55.2 °F 80% 30.02 in 10.0 mi SW 3.5 mph - N/A   Mostly Cloudy
8:55 PM 61.0 °F - 55.0 °F 81% 30.00 in 10.0 mi Calm Calm - N/A   Scattered Clouds
9:15 PM 59.0 °F - 54.5 °F 85% 30.00 in 10.0 mi West 3.5 mph - N/A   Clear
9:35 PM 57.6 °F - 53.6 °F 87% 30.01 in 10.0 mi Calm Calm - N/A   Clear
9:55 PM 55.4 °F - 52.7 °F 91% 30.00 in 10.0 mi South 4.6 mph - N/A   Clear
10:15 PM 59.7 °F - 54.7 °F 83% 30.00 in 10.0 mi South 6.9 mph - N/A   Scattered Clouds
10:35 PM 61.7 °F - 55.0 °F 79% 30.00 in 10.0 mi South 4.6 mph - N/A   Scattered Clouds
10:55 PM 59.7 °F - 54.5 °F 83% 30.00 in 10.0 mi SSW 3.5 mph - N/A   Scattered Clouds
11:35 PM 55.9 °F - 52.9 °F 89% 30.02 in 10.0 mi SW 5.8 mph - N/A   Clear
11:55 PM 56.8 °F - 53.4 °F 88% 30.03 in 10.0 mi SW 4.6 mph - N/A   Scattered Clouds